Location: Pedholt
(56.0260°N, 10.2097°E)
Time: 18:41:54
(UTC+00:00)

SR - Pass Details

Date: 30 July 2021
Orbit: 581 x 874 km, 66.7° (Epoch: 26 September)

Event Time Altitude Azimuth Distance (km) Brightness Sun altitude
Rises 05:27:04 0° 185° (S) 3,432 ? 15.4°
Reaches altitude 10° 05:29:51 10° 175° (S) 2,477 ? 15.8°
Maximum altitude 05:34:45 30° 116° (ESE) 1,439 ? 16.5°
Drops below altitude 10° 05:39:26 10° 57° (ENE) 2,358 ? 17.1°
Sets 05:42:01 0° 47° (NE) 3,242 ? 17.5°
